SCP
0 0 0 0 0 0 0 0 0 0 0 0 0 0 0 0 0 0 0 0 0 0 0 0 0 0 0 1 1 2 2 2 2 2 3 3 3 3
0 0 0 0 0 0 0 0 0 0 0 0 0 0 0 0 0 0 0 0 0 0 0 0 0 0 0 0 1 1 1 1 1 2 2 3 3 3
0 0 0 0 0 0 0 0 0 0 0 0 0 0 0 0 0 0 0 0 0 0 0 0 0 0 0 0 0 0 1 1 1 1 2 3 3 3
0 0 0 0 0 0 0 0 0 0 0 0 0 0 0 0 0 0 0 0 0 0 0 0 0 0 0 0 0 0 0 0 0 1 1 2 2 3
0 0 0 0 0 0 0 0 0 0 0 0 0 0 0 0 0 0 0 0 0 0 0 0 1 0 0 0 0 0 0 0 0 0 1 1 2 2
0 0 0 0 0 0 0 0 0 0 0 0 0 0 0 0 0 0 0 0 0 0 0 1 1 1 1 0 0 0 0 0 0 0 0 1 1 1
0 0 0 0 0 0 0 0 0 0 0 0 0 0 0 0 0 0 0 0 0 0 1 1 1 1 1 1 0 0 0 0 0 0 0 0 0 1
0 0 0 0 0 0 0 0 0 0 0 0 0 0 0 0 0 0 0 0 0 0 1 1 1 1 1 1 1 0 0 0 0 0 0 0 0 0
0 0 0 0 0 0 0 0 0 0 0 0 0 0 0 0 0 0 0 0 0 0 0 1 1 1 1 1 1 0 0 0 0 0 0 0 0 0
0 0 0 0 0 0 0 0 0 0 0 0 0 0 0 0 0 0 0 0 0 0 0 1 1 1 1 1 1 0 0 0 0 0 0 0 0 0
0 0 0 0 0 0 0 0 0 0 0 0 0 0 0 0 0 0 0 0 0 0 0 0 1 1 1 1 1 0 0 0 0 0 0 0 0 0
0 0 0 0 0 0 0 0 0 0 0 0 0 0 0 0 0 0 0 0 0 0 0 0 0 1 1 1 1 1 0 0 0 0 0 0 0 0
0 0 0 0 0 0 0 0 0 0 0 0 0 0 0 0 0 0 0 0 0 0 0 0 0 0 1 1 1 1 0 0 0 0 0 0 0 0
0 0 0 0 0 0 0 0 0 0 0 0 0 0 0 0 0 0 0 0 0 0 0 0 0 0 0 0 1 1 1 0 0 0 0 0 0 0
0 0 0 0 0 0 0 0 0 0 0 0 0 0 0 0 0 0 0 0 0 0 0 0 0 0 0 0 0 0 0 0 0 0 0 0 0 0
0 0 0 0 0 0 0 0 0 0 0 0 0 0 0 0 0 0 0 0 0 0 0 0 0 0 0 0 0 0 0 0 0 0 0 0 0 0
0 0 0 0 0 0 0 0 0 0 0 0 0 0 0 0 0 0 0 0 0 0 0 0 0 0 0 0 0 0 0 0 0 0 0 0 0 0
0 0 0 0 0 0 0 0 0 0 0 0 0 0 0 0 0 0 0 0 0 0 0 0 0 0 0 0 0 0 0 0 0 0 0 0 0 0
0 0 0 0 0 0 0 0 0 0 0 0 0 0 0 0 0 0 0 0 0 0 0 0 0 0 0 0 0 0 0 0 0 0 0 0 0 0
0 0 0 0 0 0 0 0 0 0 0 0 0 0 0 0 0 0 0 0 0 0 0 0 0 0 0 0 0 0 0 0 0 0 0 0 0 0
0 0 0 0 0 0 0 0 0 0 0 0 0 0 0 0 0 0 0 0 0 0 0 0 0 0 0 0 0 0 0 0 0 0 0 0 0 0
0 0 0 0 0 0 0 0 0 0 0 0 0 0 0 0 0 0 0 0 0 0 0 0 0 0 0 0 0 0 0 0 0 0 0 0 0 0
0 0 0 0 0 0 0 0 0 0 0 0 0 0 0 0 0 0 0 0 0 0 0 0 0 0 0 0 0 0 0 0 0 0 0 0 0 0
Wind_Speed
11 11 10 9 8 9 9 9 10 12 12 12 9 8 8 9 12 12 12 16 18 17 16 14 11 9 10 11 12 15 18 21 23 24 25 26 26 25
10 11 10 9 8 8 8 8 8 10 12 11 11 12 12 11 14 13 13 18 19 17 16 13 10 9 9 10 13 14 16 18 22 24 25 25 25 24
12 12 13 13 10 9 8 8 8 8 11 12 11 12 14 13 12 11 11 11 10 14 14 13 11 8 8 8 12 15 17 17 20 23 24 23 23 23
13 14 14 12 14 11 10 10 9 9 10 14 12 11 13 12 12 12 10 9 9 12 13 13 11 9 8 8 11 15 17 18 18 20 21 20 20 21
13 13 14 15 15 13 13 11 10 10 10 11 12 10 10 9 11 10 10 8 8 9 11 12 11 9 8 8 10 14 18 20 20 20 20 19 19 21
12 12 13 14 15 15 12 13 12 11 11 10 9 9 8 10 8 8 7 6 7 6 7 8 9 9 8 8 10 13 18 22 24 23 21 20 19 20
12 12 13 17 20 15 12 13 12 10 10 9 9 9 8 9 8 7 8 8 7 4 5 5 7 6 6 7 8 12 16 21 25 26 24 22 21 20
12 13 14 15 19 19 19 18 16 12 12 10 8 9 10 10 9 8 8 6 5 3 4 5 5 6 5 4 6 10 15 19 22 24 25 23 22 21
11 12 12 13 17 13 14 17 15 16 15 11 10 10 11 11 11 11 9 8 7 7 5 4 4 5 4 4 7 9 12 17 21 23 24 24 23 21
10 12 13 15 15 17 13 13 12 11 12 9 9 10 10 10 10 10 10 10 10 8 6 4 2 3 4 4 7 8 10 14 18 21 22 23 23 22
9 10 13 14 21 23 15 14 14 12 13 16 15 13 14 14 11 7 7 6 5 3 2 3 1 1 3 3 5 8 9 11 15 18 21 22 22 21
9 10 13 17 21 22 15 14 15 14 13 13 12 11 10 10 11 6 6 5 5 4 4 4 2 1 2 1 2 4 5 8 12 15 18 21 22 15
8 8 9 19 20 20 17 13 17 16 12 12 10 9 8 7 7 7 6 5 5 5 5 6 4 2 1 2 1 2 4 4 6 9 14 19 22 17
8 8 10 18 19 18 15 18 20 16 10 10 9 9 9 9 9 9 8 7 8 9 9 7 4 3 2 2 2 2 3 4 5 5 7 14 16 16
7 12 14 16 16 12 16 19 15 10 10 10 10 10 10 10 10 8 8 6 7 8 8 7 5 4 3 1 1 2 3 3 5 6 7 8 9 12
8 10 12 12 11 12 13 11 9 10 11 10 11 10 10 10 9 9 8 7 4 2 3 4 4 3 1 1 1 3 3 4 5 7 8 7 7 9
9 7 7 8 8 8 9 9 9 10 10 10 10 11 11 10 10 9 8 6 4 4 4 3 1 2 5 5 2 4 6 7 8 9 11 11 8 8
10 7 8 8 8 8 9 9 10 10 11 11 11 11 11 11 10 10 9 7 6 5 4 3 2 1 2 6 12 3 5 7 8 9 12 14 11 8
8 8 8 8 7 7 8 8 9 10 10 10 10 11 11 11 10 10 10 9 7 6 5 4 3 1 3 4 7 13 4 8 10 10 10 12 12 10
8 8 8 8 7 7 7 7 8 9 9 9 10 10 10 11 11 11 10 11 8 7 6 5 5 4 3 4 4 6 14 5 11 14 13 14 14 19
8 8 8 8 7 7 6 6 7 7 9 9 9 10 10 10 10 10 10 13 10 7 7 6 5 5 3 5 7 6 9 16 11 11 17 17 16 13
9 9 8 8 7 7 6 6 6 6 8 8 8 9 9 9 10 11 10 10 9 8 7 5 5 3 3 6 10 10 11 13 18 23 19 11 9 12
9 9 9 8 7 6 6 5 6 6 6 7 7 8 8 9 9 9 9 9 9 9 7 6 5 6 7 8 11 12 15 13 11 13 14 20 25 29
Wind_Direction
306 300 292 289 284 280 276 275 283 295 301 305 307 309 308 298 294 292 290 290 293 295 293 287 279 271 252 223 206 208 209 205 198 194 194 196 197 196
331 327 319 312 308 303 296 290 288 289 292 300 305 304 306 299 294 291 285 286 283 281 281 280 271 265 257 229 204 197 200 200 194 189 191 193 192 190
339 337 334 331 330 327 319 310 302 299 295 299 302 305 307 304 300 291 282 275 271 268 272 274 262 256 250 234 206 196 192 192 190 185 185 186 187 184
337 337 337 334 334 332 330 328 321 310 302 303 307 310 308 308 304 296 284 271 266 264 264 268 256 244 243 240 214 197 188 186 188 183 180 180 181 178
335 335 334 333 333 334 334 333 327 320 311 304 307 311 311 317 312 301 289 275 271 262 256 254 245 233 230 236 221 200 184 182 181 182 179 178 178 177
335 333 331 331 331 336 335 336 332 325 319 313 312 316 318 324 321 318 311 304 285 268 256 243 232 220 218 227 222 203 188 181 180 179 176 175 175 175
337 334 331 335 336 339 338 339 336 330 326 321 319 322 327 333 332 323 313 305 281 272 270 235 214 202 200 215 223 206 191 185 181 178 176 173 171 172
338 336 333 337 337 340 339 342 340 335 333 328 322 323 324 326 324 321 319 315 293 343 307 249 210 196 184 189 205 201 190 183 180 176 174 171 169 171
337 336 337 338 343 339 343 343 337 336 337 331 319 319 318 322 320 317 317 312 297 313 311 265 209 196 177 179 191 197 188 181 178 176 171 167 166 168
332 334 336 338 340 349 346 340 335 335 335 328 318 316 315 316 313 306 302 297 281 264 255 269 217 186 162 165 182 190 184 178 176 175 172 169 166 165
327 332 335 337 344 352 349 341 338 340 340 335 330 324 323 322 324 317 310 303 286 281 274 280 298 173 150 159 174 182 179 173 171 172 173 170 166 163
327 332 335 341 347 351 349 344 342 343 338 333 332 330 328 326 331 324 309 299 297 305 347 332 330 21 124 125 153 163 165 166 166 169 171 169 165 165
328 333 335 342 348 350 350 348 347 344 335 332 332 335 337 336 333 325 302 281 281 288 346 346 331 349 71 107 124 156 152 145 153 161 166 166 167 168
327 332 337 343 347 349 350 351 352 348 341 339 340 344 343 341 334 325 308 278 257 265 293 312 311 338 359 102 124 128 128 129 131 139 152 157 158 154
336 338 341 346 346 345 349 352 353 348 347 345 345 344 341 336 333 331 325 303 268 252 261 263 268 298 321 19 107 122 112 100 123 128 134 147 148 145
346 340 341 344 346 346 348 350 351 351 350 345 343 341 342 344 348 347 342 337 322 301 275 276 270 272 310 327 118 115 114 122 121 117 111 105 112 128
347 341 346 347 350 351 351 351 351 351 352 348 348 348 350 352 353 352 349 347 351 346 344 343 356 78 59 34 95 103 116 113 117 119 112 99 80 101
353 350 350 349 349 348 348 349 352 353 351 348 351 352 353 353 353 354 357 358 357 351 349 342 339 69 66 47 26 70 103 109 110 112 117 113 97 82
356 350 349 348 346 344 345 346 348 350 348 349 352 354 353 354 356 357 359 360 358 356 353 350 344 353 110 83 18 15 73 118 116 107 108 114 111 104
352 347 345 344 343 342 342 343 344 347 351 350 353 354 354 356 359 360 0 0 357 358 3 11 12 12 74 107 92 30 24 80 124 117 110 104 97 101
345 342 340 340 340 338 337 338 340 345 350 349 353 355 355 357 359 360 359 1 5 6 10 8 2 13 65 96 97 71 45 45 73 119 128 124 120 116
339 337 336 335 335 334 332 333 336 343 349 352 354 355 356 357 358 0 2 2 4 4 5 7 8 22 53 107 110 102 89 75 64 62 61 81 126 138
334 332 330 330 331 330 327 327 329 339 347 349 352 355 356 358 360 2 4 6 7 9 12 24 42 60 76 100 109 108 102 96 89 80 67 76 91 106